Time,TemperatureF,DewpointF,PressureIn,WindDirection,WindDirectionDegrees,WindSpeedMPH,WindSpeedGustMPH,Humidity,HourlyPrecipIn,Conditions,Clouds,dailyrainin,SoftwareType,DateUTC
2013-01-21 00:00:00,60.2,24.3,30.06,NW,309,1.0,6.0,25,0.00,,CLR,0.00,VWS V14.01,2013-01-21 08:00:00,
2013-01-21 00:03:00,60.1,25.1,30.06,NE,44,1.0,2.0,26,0.00,,CLR,0.00,VWS V14.01,2013-01-21 08:03:00,
2013-01-21 00:08:00,59.9,23.0,30.06,NNW,342,2.0,5.0,24,0.00,,CLR,0.00,VWS V14.01,2013-01-21 08:08:00,
2013-01-21 00:13:00,59.8,22.0,30.06,North,349,4.0,5.0,23,0.00,,CLR,0.00,VWS V14.01,2013-01-21 08:13:00,
2013-01-21 00:15:00,59.8,22.0,30.05,North,360,2.0,5.0,23,0.00,,CLR,0.00,VWS V14.01,2013-01-21 08:15:00,
2013-01-21 00:18:00,59.8,23.0,30.05,NNE,15,2.0,4.0,24,0.00,,CLR,0.00,VWS V14.01,2013-01-21 08:18:00,
2013-01-21 00:23:00,59.5,23.7,30.05,North,6,0.0,5.0,25,0.00,,CLR,0.00,VWS V14.01,2013-01-21 08:23:00,
2013-01-21 00:28:00,58.9,23.2,30.05,NNE,15,1.0,5.0,25,0.00,,CLR,0.00,VWS V14.01,2013-01-21 08:28:00,
2013-01-21 00:30:00,58.7,23.0,30.04,NE,48,0.0,5.0,25,0.00,,CLR,0.00,VWS V14.01,2013-01-21 08:30:00,
2013-01-21 00:33:00,58.7,23.0,30.04,NE,46,0.0,4.0,25,0.00,,CLR,0.00,VWS V14.01,2013-01-21 08:33:00,
2013-01-21 00:38:00,58.6,20.9,30.04,NE,35,2.0,4.0,23,0.00,,CLR,0.00,VWS V14.01,2013-01-21 08:38:00,
2013-01-21 00:43:00,58.9,21.2,30.04,NE,35,1.0,4.0,23,0.00,,CLR,0.00,VWS V14.01,2013-01-21 08:43:00,
2013-01-21 00:45:00,59.0,21.3,30.04,NE,35,1.0,4.0,23,0.00,,CLR,0.00,VWS V14.01,2013-01-21 08:45:00,
2013-01-21 00:48:00,59.2,21.4,30.04,NE,35,2.0,2.0,23,0.00,,CLR,0.00,VWS V14.01,2013-01-21 08:48:00,
2013-01-21 00:53:00,59.6,21.8,30.04,NNE,25,4.0,4.0,23,0.00,,CLR,0.00,VWS V14.01,2013-01-21 08:53:00,
2013-01-21 00:58:00,59.8,22.0,30.04,North,10,0.0,4.0,23,0.00,,CLR,0.00,VWS V14.01,2013-01-21 08:58:00,
2013-01-21 01:00:00,59.8,22.0,30.03,NNW,327,3.0,5.0,23,0.00,,CLR,0.00,VWS V14.01,2013-01-21 09:00:00,
2013-01-21 01:03:00,59.8,23.0,30.03,NNW,347,4.0,4.0,24,0.00,,CLR,0.00,VWS V14.01,2013-01-21 09:03:00,
2013-01-21 01:08:00,59.6,23.8,30.03,NNW,327,1.0,5.0,25,0.00,,CLR,0.00,VWS V14.01,2013-01-21 09:08:00,
2013-01-21 01:13:00,59.6,24.7,30.03,North,2,0.0,5.0,26,0.00,,CLR,0.00,VWS V14.01,2013-01-21 09:13:00,
2013-01-21 01:15:00,59.3,25.4,30.03,East,82,0.0,5.0,27,0.00,,CLR,0.00,VWS V14.01,2013-01-21 09:15:00,
2013-01-21 01:18:00,59.2,25.3,30.03,North,357,4.0,5.0,27,0.00,,CLR,0.00,VWS V14.01,2013-01-21 09:18:00,
2013-01-21 01:23:00,58.4,25.5,30.03,NNE,25,2.0,5.0,28,0.00,,CLR,0.00,VWS V14.01,2013-01-21 09:23:00,
2013-01-21 01:28:00,58.1,26.0,30.03,West,275,1.0,5.0,29,0.00,,CLR,0.00,VWS V14.01,2013-01-21 09:28:00,
2013-01-21 01:30:00,58.1,25.2,30.03,North,358,1.0,5.0,28,0.00,,CLR,0.00,VWS V14.01,2013-01-21 09:30:00,
2013-01-21 01:33:00,58.1,25.2,30.03,NNW,338,1.0,6.0,28,0.00,,CLR,0.00,VWS V14.01,2013-01-21 09:33:00,
2013-01-21 01:38:00,58.7,23.9,30.03,North,4,2.0,9.0,26,0.00,,CLR,0.00,VWS V14.01,2013-01-21 09:38:00,
2013-01-21 01:43:00,59.2,25.3,30.03,North,4,5.0,9.0,27,0.00,,CLR,0.00,VWS V14.01,2013-01-21 09:43:00,
2013-01-21 01:45:00,59.0,26.0,30.03,NNE,25,5.0,9.0,28,0.00,,CLR,0.00,VWS V14.01,2013-01-21 09:45:00,
2013-01-21 01:48:00,59.0,26.0,30.03,NNE,25,4.0,5.0,28,0.00,,CLR,0.00,VWS V14.01,2013-01-21 09:48:00,
2013-01-21 01:53:00,58.7,25.7,30.03,North,358,3.0,5.0,28,0.00,,CLR,0.00,VWS V14.01,2013-01-21 09:53:00,
2013-01-21 01:58:00,58.7,23.9,30.03,North,358,2.0,5.0,26,0.00,,CLR,0.00,VWS V14.01,2013-01-21 09:58:00,
2013-01-21 02:00:00,58.9,23.2,30.03,North,358,2.0,5.0,25,0.00,,CLR,0.00,VWS V14.01,2013-01-21 10:00:00,
2013-01-21 02:03:00,58.9,23.2,30.03,NNE,29,1.0,3.0,25,0.00,,CLR,0.00,VWS V14.01,2013-01-21 10:03:00,
2013-01-21 02:08:00,58.9,23.2,30.03,NNE,29,1.0,3.0,25,0.00,,CLR,0.00,VWS V14.01,2013-01-21 10:08:00,
2013-01-21 02:13:00,58.9,21.2,30.03,NNE,29,1.0,3.0,23,0.00,,CLR,0.00,VWS V14.01,2013-01-21 10:13:00,
2013-01-21 02:15:00,58.9,20.1,30.03,NNE,29,1.0,3.0,22,0.00,,CLR,0.00,VWS V14.01,2013-01-21 10:15:00,
2013-01-21 02:18:00,59.0,20.2,30.03,NNE,29,0.0,1.0,22,0.00,,CLR,0.00,VWS V14.01,2013-01-21 10:18:00,
2013-01-21 02:23:00,58.9,19.1,30.03,NNE,29,0.0,1.0,21,0.00,,CLR,0.00,VWS V14.01,2013-01-21 10:23:00,
2013-01-21 02:29:00,59.0,19.1,30.03,NNE,29,0.0,1.0,21,0.00,,CLR,0.00,VWS V14.01,2013-01-21 10:29:00,
2013-01-21 02:30:00,59.2,19.3,30.02,NNE,29,1.0,2.0,21,0.00,,CLR,0.00,VWS V14.01,2013-01-21 10:30:00,
2013-01-21 02:33:00,59.2,19.3,30.02,NNE,29,0.0,1.0,21,0.00,,CLR,0.00,VWS V14.01,2013-01-21 10:33:00,
2013-01-21 02:38:00,59.2,19.3,30.02,NNE,29,1.0,1.0,21,0.00,,CLR,0.00,VWS V14.01,2013-01-21 10:38:00,
2013-01-21 02:43:00,59.2,19.3,30.02,NNE,29,1.0,2.0,21,0.00,,CLR,0.00,VWS V14.01,2013-01-21 10:43:00,
2013-01-21 02:45:00,59.0,20.2,30.03,NNE,29,2.0,3.0,22,0.00,,CLR,0.00,VWS V14.01,2013-01-21 10:45:00,
2013-01-21 02:48:00,59.0,20.2,30.03,NW,324,3.0,4.0,22,0.00,,CLR,0.00,VWS V14.01,2013-01-21 10:48:00,
2013-01-21 02:54:00,59.2,20.4,30.03,NW,325,4.0,4.0,22,0.00,,CLR,0.00,VWS V14.01,2013-01-21 10:54:00,
2013-01-21 02:59:00,59.3,20.5,30.03,NW,320,3.0,4.0,22,0.00,,CLR,0.00,VWS V14.01,2013-01-21 10:59:00,
2013-01-21 03:00:00,59.5,19.6,30.02,NW,306,3.0,4.0,21,0.00,,CLR,0.00,VWS V14.01,2013-01-21 11:00:00,
2013-01-21 03:04:00,59.6,18.5,30.02,NW,306,1.0,3.0,20,0.00,,CLR,0.00,VWS V14.01,2013-01-21 11:04:00,
2013-01-21 03:09:00,59.9,18.8,30.02,NW,306,1.0,3.0,20,0.00,,CLR,0.00,VWS V14.01,2013-01-21 11:09:00,
2013-01-21 03:14:00,60.2,19.0,30.02,North,9,3.0,3.0,20,0.00,,CLR,0.00,VWS V14.01,2013-01-21 11:14:00,
2013-01-21 03:15:00,60.2,20.1,30.02,North,356,4.0,5.0,21,0.00,,CLR,0.00,VWS V14.01,2013-01-21 11:15:00,
2013-01-21 03:19:00,60.2,20.1,30.02,North,6,3.0,5.0,21,0.00,,CLR,0.00,VWS V14.01,2013-01-21 11:19:00,
2013-01-21 03:24:00,60.2,20.1,30.02,North,11,2.0,5.0,21,0.00,,CLR,0.00,VWS V14.01,2013-01-21 11:24:00,
2013-01-21 03:29:00,60.2,20.1,30.02,North,4,3.0,5.0,21,0.00,,CLR,0.00,VWS V14.01,2013-01-21 11:29:00,
2013-01-21 03:30:00,60.2,20.1,30.01,North,4,3.0,5.0,21,0.00,,CLR,0.00,VWS V14.01,2013-01-21 11:30:00,
2013-01-21 03:34:00,60.2,19.0,30.01,North,4,1.0,3.0,20,0.00,,CLR,0.00,VWS V14.01,2013-01-21 11:34:00,
2013-01-21 03:39:00,60.4,19.2,30.01,North,4,1.0,3.0,20,0.00,,CLR,0.00,VWS V14.01,2013-01-21 11:39:00,
2013-01-21 03:44:00,60.4,18.0,30.01,North,4,0.0,3.0,19,0.00,,CLR,0.00,VWS V14.01,2013-01-21 11:44:00,
2013-01-21 03:45:00,60.2,19.0,30.01,North,4,2.0,3.0,20,0.00,,CLR,0.00,VWS V14.01,2013-01-21 11:45:00,
2013-01-21 03:49:00,60.1,18.9,30.01,North,4,0.0,2.0,20,0.00,,CLR,0.00,VWS V14.01,2013-01-21 11:49:00,
2013-01-21 03:54:00,59.8,18.7,30.01,North,4,0.0,2.0,20,0.00,,CLR,0.00,VWS V14.01,2013-01-21 11:54:00,
2013-01-21 03:59:00,59.6,18.5,30.01,North,4,0.0,2.0,20,0.00,,CLR,0.00,VWS V14.01,2013-01-21 11:59:00,
2013-01-21 04:00:00,59.5,17.2,30.00,North,4,0.0,2.0,19,0.00,,CLR,0.00,VWS V14.01,2013-01-21 12:00:00,
2013-01-21 04:04:00,59.6,17.3,30.00,North,4,0.0,0.0,19,0.00,,CLR,0.00,VWS V14.01,2013-01-21 12:04:00,
2013-01-21 04:09:00,59.6,17.3,30.00,North,4,0.0,0.0,19,0.00,,CLR,0.00,VWS V14.01,2013-01-21 12:09:00,
2013-01-21 04:14:00,59.3,18.3,30.00,North,4,0.0,0.0,20,0.00,,CLR,0.00,VWS V14.01,2013-01-21 12:14:00,
2013-01-21 04:15:00,59.3,18.3,30.01,North,4,0.0,0.0,20,0.00,,CLR,0.00,VWS V14.01,2013-01-21 12:15:00,
2013-01-21 04:19:00,59.2,18.2,30.01,North,4,1.0,1.0,20,0.00,,CLR,0.00,VWS V14.01,2013-01-21 12:19:00,
2013-01-21 04:24:00,59.2,18.2,30.01,North,4,1.0,3.0,20,0.00,,CLR,0.00,VWS V14.01,2013-01-21 12:24:00,
2013-01-21 04:29:00,59.3,19.4,30.01,North,349,2.0,4.0,21,0.00,,CLR,0.00,VWS V14.01,2013-01-21 12:29:00,
2013-01-21 04:30:00,59.5,19.6,30.01,North,355,0.0,4.0,21,0.00,,CLR,0.00,VWS V14.01,2013-01-21 12:30:00,
2013-01-21 04:34:00,59.6,19.6,30.01,NE,54,0.0,4.0,21,0.00,,CLR,0.00,VWS V14.01,2013-01-21 12:34:00,
2013-01-21 04:39:00,59.5,20.6,30.01,NNE,20,3.0,4.0,22,0.00,,CLR,0.00,VWS V14.01,2013-01-21 12:39:00,
2013-01-21 04:44:00,59.3,20.5,30.01,NNE,29,0.0,4.0,22,0.00,,CLR,0.00,VWS V14.01,2013-01-21 12:44:00,
2013-01-21 04:45:00,59.0,21.3,30.01,NNE,29,2.0,4.0,23,0.00,,CLR,0.00,VWS V14.01,2013-01-21 12:45:00,
2013-01-21 04:49:00,58.7,21.0,30.01,NNE,29,2.0,3.0,23,0.00,,CLR,0.00,VWS V14.01,2013-01-21 12:49:00,
2013-01-21 04:54:00,58.4,19.7,30.01,NNE,25,1.0,3.0,22,0.00,,CLR,0.00,VWS V14.01,2013-01-21 12:54:00,
2013-01-21 04:59:00,58.6,19.9,30.01,NNE,25,2.0,3.0,22,0.00,,CLR,0.00,VWS V14.01,2013-01-21 12:59:00,
2013-01-21 05:00:00,58.6,19.9,30.01,NNE,25,1.0,3.0,22,0.00,,CLR,0.00,VWS V14.01,2013-01-21 13:00:00,
2013-01-21 05:04:00,58.6,19.9,30.01,NNE,25,1.0,2.0,22,0.00,,CLR,0.00,VWS V14.01,2013-01-21 13:04:00,
2013-01-21 05:09:00,58.6,19.9,30.01,NNE,25,2.0,3.0,22,0.00,,CLR,0.00,VWS V14.01,2013-01-21 13:09:00,
2013-01-21 05:14:00,58.6,19.9,30.01,NNE,25,2.0,3.0,22,0.00,,CLR,0.00,VWS V14.01,2013-01-21 13:14:00,
2013-01-21 05:15:00,58.4,19.7,30.01,NNE,20,0.0,4.0,22,0.00,,CLR,0.00,VWS V14.01,2013-01-21 13:15:00,
2013-01-21 05:19:00,58.4,19.7,30.01,NNE,20,1.0,2.0,22,0.00,,CLR,0.00,VWS V14.01,2013-01-21 13:19:00,
2013-01-21 05:24:00,58.4,19.7,30.01,NNE,20,3.0,3.0,22,0.00,,CLR,0.00,VWS V14.01,2013-01-21 13:24:00,
2013-01-21 05:29:00,58.4,19.7,30.01,NNE,20,2.0,4.0,22,0.00,,CLR,0.00,VWS V14.01,2013-01-21 13:29:00,
2013-01-21 05:30:00,58.7,18.9,30.01,NNE,20,2.0,4.0,21,0.00,,CLR,0.00,VWS V14.01,2013-01-21 13:30:00,
2013-01-21 05:34:00,58.9,19.1,30.01,NNE,20,1.0,2.0,21,0.00,,CLR,0.00,VWS V14.01,2013-01-21 13:34:00,
2013-01-21 05:39:00,59.3,19.4,30.01,NNE,20,0.0,3.0,21,0.00,,CLR,0.00,VWS V14.01,2013-01-21 13:39:00,
2013-01-21 05:44:00,59.3,19.4,30.01,NNE,20,2.0,3.0,21,0.00,,CLR,0.00,VWS V14.01,2013-01-21 13:44:00,
2013-01-21 05:45:00,59.3,19.4,30.00,NNE,20,1.0,3.0,21,0.00,,CLR,0.00,VWS V14.01,2013-01-21 13:45:00,
2013-01-21 05:49:00,59.3,19.4,30.00,NNE,20,0.0,2.0,21,0.00,,CLR,0.00,VWS V14.01,2013-01-21 13:49:00,
2013-01-21 05:54:00,59.2,19.3,30.00,NNE,20,1.0,2.0,21,0.00,,CLR,0.00,VWS V14.01,2013-01-21 13:54:00,
2013-01-21 05:59:00,59.0,19.1,30.00,NNE,20,3.0,3.0,21,0.00,,CLR,0.00,VWS V14.01,2013-01-21 13:59:00,
2013-01-21 06:00:00,59.0,19.1,30.00,NNE,20,2.0,3.0,21,0.00,,CLR,0.00,VWS V14.01,2013-01-21 14:00:00,
2013-01-21 06:04:00,59.0,19.1,30.00,NNE,20,2.0,3.0,21,0.00,,CLR,0.00,VWS V14.01,2013-01-21 14:04:00,
2013-01-21 06:09:00,59.0,19.1,30.00,NNE,20,0.0,3.0,21,0.00,,CLR,0.00,VWS V14.01,2013-01-21 14:09:00,
2013-01-21 06:14:00,58.9,19.1,30.00,NNE,20,0.0,3.0,21,0.00,,CLR,0.00,VWS V14.01,2013-01-21 14:14:00,
2013-01-21 06:15:00,58.9,17.9,30.00,NNE,20,0.0,3.0,20,0.00,,CLR,0.00,VWS V14.01,2013-01-21 14:15:00,
2013-01-21 06:19:00,58.9,17.9,30.00,NNE,20,0.0,0.0,20,0.00,,CLR,0.00,VWS V14.01,2013-01-21 14:19:00,
2013-01-21 06:24:00,58.9,17.9,30.00,NNE,20,0.0,0.0,20,0.00,,CLR,0.00,VWS V14.01,2013-01-21 14:24:00,
2013-01-21 06:29:00,58.7,18.9,30.00,NNE,20,0.0,0.0,21,0.00,,CLR,0.00,VWS V14.01,2013-01-21 14:29:00,
2013-01-21 06:30:00,58.6,17.7,30.00,NNE,20,0.0,0.0,20,0.00,,CLR,0.00,VWS V14.01,2013-01-21 14:30:00,
2013-01-21 06:34:00,58.7,17.8,30.00,NNE,20,0.0,0.0,20,0.00,,CLR,0.00,VWS V14.01,2013-01-21 14:34:00,
2013-01-21 06:39:00,58.7,17.8,30.00,NNE,20,0.0,0.0,20,0.00,,CLR,0.00,VWS V14.01,2013-01-21 14:39:00,
2013-01-21 06:44:00,58.6,17.7,30.00,NNE,20,0.0,0.0,20,0.00,,CLR,0.00,VWS V14.01,2013-01-21 14:44:00,
2013-01-21 06:45:00,58.4,18.6,30.01,NNE,20,0.0,0.0,21,0.00,,CLR,0.00,VWS V14.01,2013-01-21 14:45:00,
2013-01-21 06:49:00,58.3,18.6,30.01,NNE,20,0.0,0.0,21,0.00,,CLR,0.00,VWS V14.01,2013-01-21 14:49:00,
2013-01-21 06:54:00,58.1,18.4,30.01,NNE,20,0.0,0.0,21,0.00,,CLR,0.00,VWS V14.01,2013-01-21 14:54:00,
2013-01-21 06:59:00,58.3,17.4,30.01,NNE,20,0.0,0.0,20,0.00,,CLR,0.00,VWS V14.01,2013-01-21 14:59:00,
2013-01-21 07:00:00,58.4,17.5,30.01,NNE,20,0.0,0.0,20,0.00,,CLR,0.00,VWS V14.01,2013-01-21 15:00:00,
2013-01-21 07:04:00,58.6,17.7,30.01,NNE,20,0.0,0.0,20,0.00,,CLR,0.00,VWS V14.01,2013-01-21 15:04:00,
2013-01-21 07:09:00,58.6,17.7,30.01,NNE,20,0.0,0.0,20,0.00,,CLR,0.00,VWS V14.01,2013-01-21 15:09:00,
2013-01-21 07:14:00,58.6,17.7,30.01,NNE,20,0.0,0.0,20,0.00,,CLR,0.00,VWS V14.01,2013-01-21 15:14:00,
2013-01-21 07:15:00,58.6,17.7,30.02,NNE,20,0.0,0.0,20,0.00,,CLR,0.00,VWS V14.01,2013-01-21 15:15:00,
2013-01-21 07:19:00,58.4,17.5,30.02,NNE,20,0.0,0.0,20,0.00,,CLR,0.00,VWS V14.01,2013-01-21 15:19:00,
2013-01-21 07:24:00,58.4,17.5,30.02,NNE,20,1.0,2.0,20,0.00,,CLR,0.00,VWS V14.01,2013-01-21 15:24:00,
2013-01-21 07:29:00,58.3,17.4,30.02,NNE,20,2.0,2.0,20,0.00,,CLR,0.00,VWS V14.01,2013-01-21 15:29:00,
2013-01-21 07:30:00,58.1,17.3,30.02,NNE,20,1.0,2.0,20,0.00,,CLR,0.00,VWS V14.01,2013-01-21 15:30:00,
2013-01-21 07:34:00,58.1,17.3,30.02,NNE,20,1.0,2.0,20,0.00,,CLR,0.00,VWS V14.01,2013-01-21 15:34:00,
2013-01-21 07:39:00,58.1,17.3,30.02,NNE,20,2.0,3.0,20,0.00,,CLR,0.00,VWS V14.01,2013-01-21 15:39:00,
2013-01-21 07:44:00,58.1,17.3,30.02,NNE,20,1.0,3.0,20,0.00,,CLR,0.00,VWS V14.01,2013-01-21 15:44:00,
2013-01-21 07:45:00,58.3,17.4,30.03,NNE,20,0.0,3.0,20,0.00,,CLR,0.00,VWS V14.01,2013-01-21 15:45:00,
2013-01-21 07:49:00,58.3,17.4,30.03,NNE,20,0.0,1.0,20,0.00,,CLR,0.00,VWS V14.01,2013-01-21 15:49:00,
2013-01-21 07:54:00,58.3,18.6,30.03,NNE,20,0.0,1.0,21,0.00,,CLR,0.00,VWS V14.01,2013-01-21 15:54:00,
2013-01-21 07:59:00,58.3,20.7,30.03,NNE,20,0.0,1.0,23,0.00,,CLR,0.00,VWS V14.01,2013-01-21 15:59:00,
2013-01-21 08:00:00,58.3,20.7,30.03,NNE,20,0.0,1.0,23,0.00,,CLR,0.00,VWS V14.01,2013-01-21 16:00:00,
2013-01-21 08:04:00,58.3,19.6,30.03,NNE,20,0.0,0.0,22,0.00,,CLR,0.00,VWS V14.01,2013-01-21 16:04:00,
2013-01-21 08:09:00,58.4,20.8,30.03,NNE,20,0.0,0.0,23,0.00,,CLR,0.00,VWS V14.01,2013-01-21 16:09:00,
2013-01-21 08:14:00,58.7,20.0,30.03,NNE,20,0.0,0.0,22,0.00,,CLR,0.00,VWS V14.01,2013-01-21 16:14:00,
2013-01-21 08:15:00,59.0,19.1,30.03,NNE,20,1.0,2.0,21,0.00,,CLR,0.00,VWS V14.01,2013-01-21 16:15:00,
2013-01-21 08:19:00,59.2,18.2,30.03,NNE,20,0.0,1.0,20,0.00,,CLR,0.00,VWS V14.01,2013-01-21 16:19:00,
2013-01-21 08:24:00,59.8,18.7,30.03,NNE,20,0.0,1.0,20,0.00,,CLR,0.00,VWS V14.01,2013-01-21 16:24:00,
2013-01-21 08:29:00,59.9,18.8,30.03,NNE,20,2.0,2.0,20,0.00,,CLR,0.00,VWS V14.01,2013-01-21 16:29:00,
2013-01-21 08:30:00,60.1,18.9,30.04,NW,325,3.0,3.0,20,0.00,,CLR,0.00,VWS V14.01,2013-01-21 16:30:00,
2013-01-21 08:34:00,60.2,19.0,30.04,NW,322,3.0,3.0,20,0.00,,CLR,0.00,VWS V14.01,2013-01-21 16:34:00,
2013-01-21 08:39:00,60.5,19.2,30.04,NW,322,1.0,3.0,20,0.00,,CLR,0.00,VWS V14.01,2013-01-21 16:39:00,
2013-01-21 08:44:00,60.7,19.4,30.04,NW,320,3.0,3.0,20,0.00,,CLR,0.00,VWS V14.01,2013-01-21 16:44:00,
2013-01-21 08:45:00,60.9,18.4,30.04,NW,320,1.0,3.0,19,0.00,,CLR,0.00,VWS V14.01,2013-01-21 16:45:00,
2013-01-21 08:49:00,60.9,18.4,30.04,NW,320,0.0,3.0,19,0.00,,CLR,0.00,VWS V14.01,2013-01-21 16:49:00,
2013-01-21 08:54:00,61.2,19.8,30.04,NW,305,1.0,4.0,20,0.00,,CLR,0.00,VWS V14.01,2013-01-21 16:54:00,
2013-01-21 08:59:00,61.3,21.1,30.04,NW,305,2.0,4.0,21,0.00,,CLR,0.00,VWS V14.01,2013-01-21 16:59:00,
2013-01-21 09:00:00,61.3,21.1,30.05,NW,305,2.0,4.0,21,0.00,,CLR,0.00,VWS V14.01,2013-01-21 17:00:00,
2013-01-21 09:04:00,61.5,21.2,30.05,WNW,298,1.0,3.0,21,0.00,,CLR,0.00,VWS V14.01,2013-01-21 17:04:00,
2013-01-21 09:09:00,61.5,21.2,30.05,WNW,300,2.0,3.0,21,0.00,,CLR,0.00,VWS V14.01,2013-01-21 17:09:00,
2013-01-21 09:14:00,61.5,23.4,30.05,NW,307,1.0,4.0,23,0.00,,CLR,0.00,VWS V14.01,2013-01-21 17:14:00,
2013-01-21 09:15:00,61.5,22.3,30.05,NW,307,1.0,4.0,22,0.00,,CLR,0.00,VWS V14.01,2013-01-21 17:15:00,
2013-01-21 09:19:00,61.6,21.3,30.05,NW,307,0.0,1.0,21,0.00,,CLR,0.00,VWS V14.01,2013-01-21 17:19:00,
2013-01-21 09:24:00,61.8,22.6,30.05,NW,307,1.0,3.0,22,0.00,,CLR,0.00,VWS V14.01,2013-01-21 17:24:00,
2013-01-21 09:29:00,62.1,23.9,30.05,NW,307,2.0,3.0,23,0.00,,CLR,0.00,VWS V14.01,2013-01-21 17:29:00,
2013-01-21 09:30:00,62.3,24.1,30.06,WNW,303,2.0,3.0,23,0.00,,CLR,0.00,VWS V14.01,2013-01-21 17:30:00,
2013-01-21 09:34:00,62.3,24.1,30.06,WNW,303,3.0,4.0,23,0.00,,CLR,0.00,VWS V14.01,2013-01-21 17:34:00,
2013-01-21 09:39:00,62.7,22.2,30.06,WNW,292,2.0,4.0,21,0.00,,CLR,0.00,VWS V14.01,2013-01-21 17:39:00,
2013-01-21 09:44:00,63.2,21.5,30.06,WNW,292,3.0,4.0,20,0.00,,CLR,0.00,VWS V14.01,2013-01-21 17:44:00,
2013-01-21 09:45:00,63.7,25.2,30.06,WNW,292,1.0,4.0,23,0.00,,CLR,0.00,VWS V14.01,2013-01-21 17:45:00,
2013-01-21 09:49:00,64.2,22.3,30.06,WNW,292,0.0,1.0,20,0.00,,CLR,0.00,VWS V14.01,2013-01-21 17:49:00,
2013-01-21 09:54:00,65.3,23.2,30.06,WNW,292,1.0,2.0,20,0.00,,CLR,0.00,VWS V14.01,2013-01-21 17:54:00,
2013-01-21 09:59:00,66.3,22.8,30.06,WNW,292,2.0,2.0,19,0.00,,CLR,0.00,VWS V14.01,2013-01-21 17:59:00,
2013-01-21 10:00:00,67.1,23.5,30.06,WNW,292,0.0,2.0,19,0.00,,CLR,0.00,VWS V14.01,2013-01-21 18:00:00,
2013-01-21 10:04:00,67.6,27.4,30.06,WNW,292,0.0,0.0,22,0.00,,CLR,0.00,VWS V14.01,2013-01-21 18:04:00,
2013-01-21 10:09:00,68.9,26.2,30.06,WNW,292,1.0,2.0,20,0.00,,CLR,0.00,VWS V14.01,2013-01-21 18:09:00,
2013-01-21 10:14:00,68.1,24.3,30.06,WNW,292,0.0,3.0,19,0.00,,CLR,0.00,VWS V14.01,2013-01-21 18:14:00,
2013-01-21 10:15:00,67.9,22.9,30.06,NNE,25,2.0,3.0,18,0.00,,CLR,0.00,VWS V14.01,2013-01-21 18:15:00,
2013-01-21 10:19:00,67.9,27.7,30.06,NNE,25,1.0,2.0,22,0.00,,CLR,0.00,VWS V14.01,2013-01-21 18:19:00,
2013-01-21 10:24:00,68.8,26.1,30.06,East,81,0.0,2.0,20,0.00,,CLR,0.00,VWS V14.01,2013-01-21 18:24:00,
2013-01-21 10:29:00,69.1,26.4,30.06,ENE,66,1.0,2.0,20,0.00,,CLR,0.00,VWS V14.01,2013-01-21 18:29:00,
2013-01-21 10:34:00,69.8,28.1,30.06,ENE,66,1.0,1.0,21,0.00,,CLR,0.00,VWS V14.01,2013-01-21 18:34:00,
2013-01-21 10:39:00,70.1,28.4,30.06,ENE,66,0.0,2.0,21,0.00,,CLR,0.00,VWS V14.01,2013-01-21 18:39:00,
2013-01-21 10:44:00,70.9,33.4,30.06,ENE,66,0.0,2.0,25,0.00,,CLR,0.00,VWS V14.01,2013-01-21 18:44:00,
2013-01-21 10:45:00,71.3,29.4,30.04,ENE,74,0.0,2.0,21,0.00,,CLR,0.00,VWS V14.01,2013-01-21 18:45:00,
2013-01-21 10:49:00,71.3,33.7,30.04,ENE,74,1.0,1.0,25,0.00,,CLR,0.00,VWS V14.01,2013-01-21 18:49:00,
2013-01-21 10:54:00,70.9,33.4,30.04,ENE,76,0.0,2.0,25,0.00,,CLR,0.00,VWS V14.01,2013-01-21 18:54:00,
2013-01-21 10:59:00,70.6,29.9,30.04,ENE,76,0.0,2.0,22,0.00,,CLR,0.00,VWS V14.01,2013-01-21 18:59:00,
2013-01-21 11:00:00,70.6,33.1,30.04,ENE,76,1.0,2.0,25,0.00,,CLR,0.00,VWS V14.01,2013-01-21 19:00:00,
2013-01-21 11:04:00,70.6,31.0,30.04,South,180,0.0,3.0,23,0.00,,CLR,0.00,VWS V14.01,2013-01-21 19:04:00,
2013-01-21 11:09:00,70.6,29.9,30.04,ESE,123,0.0,3.0,22,0.00,,CLR,0.00,VWS V14.01,2013-01-21 19:09:00,
2013-01-21 11:14:00,70.1,36.4,30.04,SE,138,2.0,3.0,29,0.00,,CLR,0.00,VWS V14.01,2013-01-21 19:14:00,
2013-01-21 11:15:00,69.6,31.2,30.05,SE,124,2.0,3.0,24,0.00,,CLR,0.00,VWS V14.01,2013-01-21 19:15:00,
2013-01-21 11:19:00,69.4,32.1,30.05,ESE,113,1.0,2.0,25,0.00,,CLR,0.00,VWS V14.01,2013-01-21 19:19:00,
2013-01-21 11:24:00,69.3,32.0,30.05,ESE,118,1.0,4.0,25,0.00,,CLR,0.00,VWS V14.01,2013-01-21 19:24:00,
2013-01-21 11:29:00,69.4,31.1,30.05,ESE,117,1.0,4.0,24,0.00,,CLR,0.00,VWS V14.01,2013-01-21 19:29:00,
2013-01-21 11:30:00,69.4,34.0,30.05,SE,125,2.0,4.0,27,0.00,,CLR,0.00,VWS V14.01,2013-01-21 19:30:00,
2013-01-21 11:34:00,69.1,34.7,30.05,East,94,2.0,3.0,28,0.00,,CLR,0.00,VWS V14.01,2013-01-21 19:34:00,
2013-01-21 11:39:00,68.9,34.5,30.05,ENE,78,3.0,3.0,28,0.00,,CLR,0.00,VWS V14.01,2013-01-21 19:39:00,
2013-01-21 11:44:00,68.8,36.1,30.05,East,88,0.0,4.0,30,0.00,,CLR,0.00,VWS V14.01,2013-01-21 19:44:00,
2013-01-21 11:45:00,68.9,35.4,30.05,ESE,105,1.0,4.0,29,0.00,,CLR,0.00,VWS V14.01,2013-01-21 19:45:00,
2013-01-21 11:49:00,68.9,33.6,30.05,ESE,105,0.0,1.0,27,0.00,,CLR,0.00,VWS V14.01,2013-01-21 19:49:00,
2013-01-21 11:54:00,69.8,37.0,30.05,SE,132,0.0,4.0,30,0.00,,CLR,0.00,VWS V14.01,2013-01-21 19:54:00,
2013-01-21 11:59:00,70.6,37.7,30.05,SE,130,0.0,4.0,30,0.00,,CLR,0.00,VWS V14.01,2013-01-21 19:59:00,
2013-01-21 12:00:00,70.3,34.8,30.04,SSE,155,1.0,4.0,27,0.00,,CLR,0.00,VWS V14.01,2013-01-21 20:00:00,
2013-01-21 12:04:00,70.1,33.7,30.04,SSE,154,1.0,2.0,26,0.00,,CLR,0.00,VWS V14.01,2013-01-21 20:04:00,
2013-01-21 12:09:00,70.1,36.4,30.04,East,89,2.0,4.0,29,0.00,,CLR,0.00,VWS V14.01,2013-01-21 20:09:00,
2013-01-21 12:14:00,70.9,37.1,30.04,SE,139,0.0,4.0,29,0.00,,CLR,0.00,VWS V14.01,2013-01-21 20:14:00,
2013-01-21 12:15:00,71.3,35.6,30.03,ESE,116,1.0,4.0,27,0.00,,CLR,0.00,VWS V14.01,2013-01-21 20:15:00,
2013-01-21 12:19:00,71.1,36.4,30.03,SSE,148,0.0,4.0,28,0.00,,CLR,0.00,VWS V14.01,2013-01-21 20:19:00,
2013-01-21 12:24:00,70.9,34.3,30.03,South,187,0.0,4.0,26,0.00,,CLR,0.00,VWS V14.01,2013-01-21 20:24:00,
2013-01-21 12:29:00,71.3,35.6,30.03,ESE,123,0.0,4.0,27,0.00,,CLR,0.00,VWS V14.01,2013-01-21 20:29:00,
2013-01-21 12:30:00,71.5,35.8,30.03,SSW,209,1.0,4.0,27,0.00,,CLR,0.00,VWS V14.01,2013-01-21 20:30:00,
2013-01-21 12:34:00,71.1,35.5,30.03,SSE,156,1.0,5.0,27,0.00,,CLR,0.00,VWS V14.01,2013-01-21 20:34:00,
2013-01-21 12:39:00,71.1,35.5,30.03,ESE,113,0.0,5.0,27,0.00,,CLR,0.00,VWS V14.01,2013-01-21 20:39:00,
2013-01-21 12:44:00,71.3,34.7,30.03,South,174,0.0,5.0,26,0.00,,CLR,0.00,VWS V14.01,2013-01-21 20:44:00,
2013-01-21 12:45:00,71.1,36.4,30.03,SSW,211,1.0,5.0,28,0.00,,CLR,0.00,VWS V14.01,2013-01-21 20:45:00,
2013-01-21 12:49:00,70.9,34.3,30.03,SE,133,2.0,6.0,26,0.00,,CLR,0.00,VWS V14.01,2013-01-21 20:49:00,
2013-01-21 12:54:00,70.6,34.1,30.03,ESE,108,0.0,6.0,26,0.00,,CLR,0.00,VWS V14.01,2013-01-21 20:54:00,
2013-01-21 12:59:00,71.3,32.7,30.03,ESE,118,1.0,6.0,24,0.00,,CLR,0.00,VWS V14.01,2013-01-21 20:59:00,
2013-01-21 13:00:00,70.9,34.3,30.03,SE,143,1.0,6.0,26,0.00,,CLR,0.00,VWS V14.01,2013-01-21 21:00:00,
2013-01-21 13:04:00,70.9,32.3,30.03,South,173,3.0,5.0,24,0.00,,CLR,0.00,VWS V14.01,2013-01-21 21:04:00,
2013-01-21 13:09:00,70.9,34.3,30.03,ESE,112,1.0,5.0,26,0.00,,CLR,0.00,VWS V14.01,2013-01-21 21:09:00,
2013-01-21 13:14:00,71.3,32.7,30.03,NNE,20,0.0,5.0,24,0.00,,CLR,0.00,VWS V14.01,2013-01-21 21:14:00,
2013-01-21 13:15:00,71.3,30.5,30.02,South,174,1.0,5.0,22,0.00,,CLR,0.00,VWS V14.01,2013-01-21 21:15:00,
2013-01-21 13:19:00,71.6,30.8,30.02,SSE,151,2.0,2.0,22,0.00,,CLR,0.00,VWS V14.01,2013-01-21 21:19:00,
2013-01-21 13:24:00,71.8,33.1,30.02,South,169,2.0,4.0,24,0.00,,CLR,0.00,VWS V14.01,2013-01-21 21:24:00,
2013-01-21 13:29:00,71.6,31.9,30.02,SSE,162,2.0,4.0,23,0.00,,CLR,0.00,VWS V14.01,2013-01-21 21:29:00,
2013-01-21 13:30:00,71.1,33.5,30.02,South,173,1.0,4.0,25,0.00,,CLR,0.00,VWS V14.01,2013-01-21 21:30:00,
2013-01-21 13:34:00,70.9,32.3,30.02,South,171,2.0,2.0,24,0.00,,CLR,0.00,VWS V14.01,2013-01-21 21:34:00,
2013-01-21 13:39:00,71.5,33.9,30.02,SE,143,2.0,2.0,25,0.00,,CLR,0.00,VWS V14.01,2013-01-21 21:39:00,
2013-01-21 13:44:00,71.5,31.8,30.02,ESE,123,0.0,4.0,23,0.00,,CLR,0.00,VWS V14.01,2013-01-21 21:44:00,
2013-01-21 13:45:00,71.3,31.6,30.02,SSE,163,0.0,4.0,23,0.00,,CLR,0.00,VWS V14.01,2013-01-21 21:45:00,
2013-01-21 13:49:00,70.9,32.3,30.02,South,186,1.0,3.0,24,0.00,,CLR,0.00,VWS V14.01,2013-01-21 21:49:00,
2013-01-21 13:54:00,70.8,32.3,30.02,South,187,4.0,4.0,24,0.00,,CLR,0.00,VWS V14.01,2013-01-21 21:54:00,
2013-01-21 13:59:00,70.4,36.7,30.02,SSE,165,2.0,4.0,29,0.00,,CLR,0.00,VWS V14.01,2013-01-21 21:59:00,
2013-01-21 14:00:00,70.6,32.1,30.02,ESE,120,0.0,4.0,24,0.00,,CLR,0.00,VWS V14.01,2013-01-21 22:00:00,
2013-01-21 14:04:00,70.6,35.0,30.02,SE,142,2.0,2.0,27,0.00,,CLR,0.00,VWS V14.01,2013-01-21 22:04:00,
2013-01-21 14:09:00,70.4,34.9,30.02,SE,133,2.0,4.0,27,0.00,,CLR,0.00,VWS V14.01,2013-01-21 22:09:00,
2013-01-21 14:14:00,70.1,35.5,30.02,South,182,2.0,4.0,28,0.00,,CLR,0.00,VWS V14.01,2013-01-21 22:14:00,
2013-01-21 14:15:00,69.8,32.4,30.01,South,170,2.0,5.0,25,0.00,,CLR,0.00,VWS V14.01,2013-01-21 22:15:00,
2013-01-21 14:19:00,69.4,32.1,30.01,SSW,192,1.0,3.0,25,0.00,,CLR,0.00,VWS V14.01,2013-01-21 22:19:00,
2013-01-21 14:24:00,69.6,34.2,30.01,SSW,193,2.0,3.0,27,0.00,,CLR,0.00,VWS V14.01,2013-01-21 22:24:00,
2013-01-21 14:29:00,69.6,32.2,30.01,SE,133,1.0,3.0,25,0.00,,CLR,0.00,VWS V14.01,2013-01-21 22:29:00,
2013-01-21 14:30:00,69.4,34.0,30.02,SE,141,2.0,3.0,27,0.00,,CLR,0.00,VWS V14.01,2013-01-21 22:30:00,
2013-01-21 14:34:00,69.4,32.1,30.02,SE,141,0.0,2.0,25,0.00,,CLR,0.00,VWS V14.01,2013-01-21 22:34:00,
2013-01-21 14:39:00,69.1,33.7,30.02,SE,141,1.0,2.0,27,0.00,,CLR,0.00,VWS V14.01,2013-01-21 22:39:00,
2013-01-21 14:44:00,68.9,33.6,30.02,SE,141,0.0,2.0,27,0.00,,CLR,0.00,VWS V14.01,2013-01-21 22:44:00,
2013-01-21 14:45:00,68.8,32.5,30.01,SE,140,0.0,2.0,26,0.00,,CLR,0.00,VWS V14.01,2013-01-21 22:45:00,
2013-01-21 14:49:00,68.8,33.5,30.01,SE,140,1.0,2.0,27,0.00,,CLR,0.00,VWS V14.01,2013-01-21 22:49:00,
2013-01-21 14:54:00,68.6,35.1,30.01,SE,137,2.0,2.0,29,0.00,,CLR,0.00,VWS V14.01,2013-01-21 22:54:00,
2013-01-21 14:59:00,68.4,33.1,30.01,SSE,165,0.0,3.0,27,0.00,,CLR,0.00,VWS V14.01,2013-01-21 22:59:00,
2013-01-21 15:00:00,68.3,33.1,30.00,SSE,164,0.0,3.0,27,0.00,,CLR,0.00,VWS V14.01,2013-01-21 23:00:00,
2013-01-21 15:04:00,68.3,34.0,30.00,SSE,165,0.0,2.0,28,0.00,,CLR,0.00,VWS V14.01,2013-01-21 23:04:00,
2013-01-21 15:09:00,67.9,32.7,30.00,SSE,164,0.0,2.0,27,0.00,,CLR,0.00,VWS V14.01,2013-01-21 23:09:00,
2013-01-21 15:14:00,67.9,32.7,30.00,SSE,164,0.0,2.0,27,0.00,,CLR,0.00,VWS V14.01,2013-01-21 23:14:00,
2013-01-21 15:15:00,67.9,33.6,30.00,SSE,164,0.0,2.0,28,0.00,,CLR,0.00,VWS V14.01,2013-01-21 23:15:00,
2013-01-21 15:19:00,67.8,34.4,30.00,SSE,164,0.0,1.0,29,0.00,,CLR,0.00,VWS V14.01,2013-01-21 23:19:00,
2013-01-21 15:24:00,67.8,34.4,30.00,SSE,164,1.0,2.0,29,0.00,,CLR,0.00,VWS V14.01,2013-01-21 23:24:00,
2013-01-21 15:29:00,67.8,33.5,30.00,SSE,164,0.0,2.0,28,0.00,,CLR,0.00,VWS V14.01,2013-01-21 23:29:00,
2013-01-21 15:30:00,67.9,32.7,30.00,SSE,164,0.0,2.0,27,0.00,,CLR,0.00,VWS V14.01,2013-01-21 23:30:00,
2013-01-21 15:34:00,68.1,32.9,30.00,SSE,164,0.0,0.0,27,0.00,,CLR,0.00,VWS V14.01,2013-01-21 23:34:00,
2013-01-21 15:39:00,68.3,33.1,30.00,SSE,164,0.0,1.0,27,0.00,,CLR,0.00,VWS V14.01,2013-01-21 23:39:00,
2013-01-21 15:44:00,68.4,33.1,30.00,SSE,164,0.0,2.0,27,0.00,,CLR,0.00,VWS V14.01,2013-01-21 23:44:00,
2013-01-21 15:45:00,68.4,33.2,30.00,SSE,164,0.0,2.0,27,0.00,,CLR,0.00,VWS V14.01,2013-01-21 23:45:00,
2013-01-21 15:49:00,68.4,34.0,30.00,SSE,164,0.0,0.0,28,0.00,,CLR,0.00,VWS V14.01,2013-01-21 23:49:00,
2013-01-21 15:54:00,68.3,33.1,30.00,South,173,0.0,2.0,27,0.00,,CLR,0.00,VWS V14.01,2013-01-21 23:54:00,
2013-01-21 15:59:00,68.3,33.1,30.00,South,173,0.0,2.0,27,0.00,,CLR,0.00,VWS V14.01,2013-01-21 23:59:00,
2013-01-21 16:00:00,68.3,33.1,29.99,South,173,0.0,2.0,27,0.00,,CLR,0.00,VWS V14.01,2013-01-22 00:00:00,
2013-01-21 16:04:00,68.1,32.9,29.99,South,173,0.0,0.0,27,0.00,,CLR,0.00,VWS V14.01,2013-01-22 00:04:00,
2013-01-21 16:09:00,67.9,33.6,29.99,South,173,0.0,0.0,28,0.00,,CLR,0.00,VWS V14.01,2013-01-22 00:09:00,
2013-01-21 16:14:00,67.6,33.4,29.99,South,173,0.0,0.0,28,0.00,,CLR,0.00,VWS V14.01,2013-01-22 00:14:00,
2013-01-21 16:15:00,67.6,34.2,29.99,SSW,210,1.0,2.0,29,0.00,,CLR,0.00,VWS V14.01,2013-01-22 00:15:00,
2013-01-21 16:19:00,67.4,33.2,29.99,SSW,210,0.0,1.0,28,0.00,,CLR,0.00,VWS V14.01,2013-01-22 00:19:00,
2013-01-21 16:24:00,67.1,32.9,29.99,SSW,210,0.0,1.0,28,0.00,,CLR,0.00,VWS V14.01,2013-01-22 00:24:00,
2013-01-21 16:29:00,66.8,33.5,29.99,SSW,210,0.0,1.0,29,0.00,,CLR,0.00,VWS V14.01,2013-01-22 00:29:00,
2013-01-21 16:30:00,66.8,35.2,29.99,SSW,210,0.0,1.0,31,0.00,,CLR,0.00,VWS V14.01,2013-01-22 00:30:00,
2013-01-21 16:34:00,66.6,35.0,29.99,SSW,210,2.0,2.0,31,0.00,,CLR,0.00,VWS V14.01,2013-01-22 00:34:00,
2013-01-21 16:39:00,66.3,34.0,29.99,SSW,210,2.0,3.0,30,0.00,,CLR,0.00,VWS V14.01,2013-01-22 00:39:00,
2013-01-21 16:44:00,66.0,33.7,29.99,SSW,210,1.0,3.0,30,0.00,,CLR,0.00,VWS V14.01,2013-01-22 00:44:00,
2013-01-21 16:45:00,65.8,33.5,29.99,SSW,210,0.0,3.0,30,0.00,,CLR,0.00,VWS V14.01,2013-01-22 00:45:00,
2013-01-21 16:49:00,65.6,35.8,29.99,SW,217,3.0,3.0,33,0.00,,CLR,0.00,VWS V14.01,2013-01-22 00:49:00,
2013-01-21 16:54:00,65.3,33.1,29.99,SW,217,0.0,3.0,30,0.00,,CLR,0.00,VWS V14.01,2013-01-22 00:54:00,
2013-01-21 16:59:00,65.2,33.8,29.99,SW,217,2.0,3.0,31,0.00,,CLR,0.00,VWS V14.01,2013-01-22 00:59:00,
2013-01-21 17:00:00,65.0,32.8,29.99,SW,217,2.0,3.0,30,0.00,,CLR,0.00,VWS V14.01,2013-01-22 01:00:00,
2013-01-21 17:04:00,65.0,32.8,29.99,SW,217,1.0,2.0,30,0.00,,CLR,0.00,VWS V14.01,2013-01-22 01:04:00,
2013-01-21 17:09:00,64.7,32.6,29.99,SW,217,2.0,3.0,30,0.00,,CLR,0.00,VWS V14.01,2013-01-22 01:09:00,
2013-01-21 17:14:00,64.3,33.0,29.99,SW,217,2.0,3.0,31,0.00,,CLR,0.00,VWS V14.01,2013-01-22 01:14:00,
2013-01-21 17:15:00,64.3,33.0,29.99,SW,217,2.0,3.0,31,0.00,,CLR,0.00,VWS V14.01,2013-01-22 01:15:00,
2013-01-21 17:19:00,64.2,33.0,29.99,SW,217,2.0,3.0,31,0.00,,CLR,0.00,VWS V14.01,2013-01-22 01:19:00,
2013-01-21 17:24:00,63.9,32.7,29.99,SW,217,3.0,3.0,31,0.00,,CLR,0.00,VWS V14.01,2013-01-22 01:24:00,
2013-01-21 17:29:00,63.5,31.5,29.99,SW,218,3.0,4.0,30,0.00,,CLR,0.00,VWS V14.01,2013-01-22 01:29:00,
2013-01-21 17:30:00,63.4,32.3,29.99,SW,218,2.0,4.0,31,0.00,,CLR,0.00,VWS V14.01,2013-01-22 01:30:00,
2013-01-21 17:34:00,63.4,32.3,29.99,SW,218,2.0,4.0,31,0.00,,CLR,0.00,VWS V14.01,2013-01-22 01:34:00,
2013-01-21 17:39:00,63.2,32.1,29.99,West,280,3.0,4.0,31,0.00,,CLR,0.00,VWS V14.01,2013-01-22 01:39:00,
2013-01-21 17:44:00,63.4,33.0,29.99,WNW,286,1.0,4.0,32,0.00,,CLR,0.00,VWS V14.01,2013-01-22 01:44:00,
2013-01-21 17:45:00,63.5,33.9,29.98,WNW,286,1.0,4.0,33,0.00,,CLR,0.00,VWS V14.01,2013-01-22 01:45:00,
2013-01-21 17:49:00,63.5,34.7,29.99,North,5,4.0,4.0,34,0.00,,CLR,0.00,VWS V14.01,2013-01-22 01:49:00,
2013-01-21 17:54:00,63.4,36.0,29.99,NNE,31,4.0,4.0,36,0.00,,CLR,0.00,VWS V14.01,2013-01-22 01:54:00,
2013-01-21 17:59:00,63.1,34.3,29.99,NNE,31,2.0,4.0,34,0.00,,CLR,0.00,VWS V14.01,2013-01-22 01:59:00,
2013-01-21 18:00:00,63.1,32.8,29.99,NNE,31,1.0,4.0,32,0.00,,CLR,0.00,VWS V14.01,2013-01-22 02:00:00,
2013-01-21 18:04:00,63.2,32.1,29.99,NNE,31,0.0,1.0,31,0.00,,CLR,0.00,VWS V14.01,2013-01-22 02:04:00,
2013-01-21 18:09:00,63.1,32.0,29.99,NNE,31,0.0,2.0,31,0.00,,CLR,0.00,VWS V14.01,2013-01-22 02:09:00,
2013-01-21 18:14:00,63.1,30.4,29.99,NNE,31,0.0,2.0,29,0.00,,CLR,0.00,VWS V14.01,2013-01-22 02:14:00,
2013-01-21 18:15:00,63.1,27.7,30.00,NNE,31,0.0,2.0,26,0.00,,CLR,0.00,VWS V14.01,2013-01-22 02:15:00,
2013-01-21 18:19:00,63.1,27.7,30.00,NNE,31,0.0,1.0,26,0.00,,CLR,0.00,VWS V14.01,2013-01-22 02:19:00,
2013-01-21 18:24:00,63.2,26.8,30.00,NNE,31,0.0,1.0,25,0.00,,CLR,0.00,VWS V14.01,2013-01-22 02:24:00,
2013-01-21 18:29:00,63.4,27.9,30.00,NNE,31,0.0,1.0,26,0.00,,CLR,0.00,VWS V14.01,2013-01-22 02:29:00,
2013-01-21 18:34:00,63.7,26.3,30.00,NNE,31,0.0,0.0,24,0.00,,CLR,0.00,VWS V14.01,2013-01-22 02:34:00,
2013-01-21 18:39:00,63.9,25.4,30.00,NNE,31,0.0,1.0,23,0.00,,CLR,0.00,VWS V14.01,2013-01-22 02:39:00,
2013-01-21 18:44:00,64.0,28.5,30.00,NW,325,6.0,6.0,26,0.00,,CLR,0.00,VWS V14.01,2013-01-22 02:44:00,
2013-01-21 18:45:00,64.0,30.3,30.00,NNW,338,4.0,6.0,28,0.00,,CLR,0.00,VWS V14.01,2013-01-22 02:45:00,
2013-01-21 18:49:00,63.9,29.3,30.00,NW,314,2.0,7.0,27,0.00,,CLR,0.00,VWS V14.01,2013-01-22 02:49:00,
2013-01-21 18:54:00,63.5,28.0,30.00,NNW,333,2.0,7.0,26,0.00,,CLR,0.00,VWS V14.01,2013-01-22 02:54:00,
2013-01-21 18:59:00,63.7,28.2,30.00,WNW,291,3.0,7.0,26,0.00,,CLR,0.00,VWS V14.01,2013-01-22 02:59:00,
2013-01-21 19:00:00,63.7,30.9,30.01,WNW,291,4.0,7.0,29,0.00,,CLR,0.00,VWS V14.01,2013-01-22 03:00:00,
2013-01-21 19:04:00,63.7,31.7,30.01,WNW,291,3.0,4.0,30,0.00,,CLR,0.00,VWS V14.01,2013-01-22 03:04:00,
2013-01-21 19:09:00,63.5,32.3,30.01,WNW,291,4.0,4.0,31,0.00,,CLR,0.00,VWS V14.01,2013-01-22 03:09:00,
2013-01-21 19:14:00,63.2,32.1,30.01,WNW,291,4.0,4.0,31,0.00,,CLR,0.00,VWS V14.01,2013-01-22 03:14:00,
2013-01-21 19:19:00,63.1,32.0,30.01,WNW,291,3.0,3.0,31,0.00,,CLR,0.00,VWS V14.01,2013-01-22 03:19:00,
2013-01-21 19:24:00,63.1,31.2,30.01,WNW,291,3.0,4.0,30,0.00,,CLR,0.00,VWS V14.01,2013-01-22 03:24:00,
2013-01-21 19:29:00,62.9,29.3,30.01,WNW,291,2.0,4.0,28,0.00,,CLR,0.00,VWS V14.01,2013-01-22 03:29:00,
2013-01-21 19:30:00,63.1,29.5,30.01,WNW,291,2.0,5.0,28,0.00,,CLR,0.00,VWS V14.01,2013-01-22 03:30:00,
2013-01-21 19:34:00,63.1,29.5,30.01,WNW,291,5.0,5.0,28,0.00,,CLR,0.00,VWS V14.01,2013-01-22 03:34:00,
2013-01-21 19:39:00,63.4,28.9,30.01,NW,304,4.0,5.0,27,0.00,,CLR,0.00,VWS V14.01,2013-01-22 03:39:00,
2013-01-21 19:44:00,63.5,28.0,30.01,WNW,290,5.0,5.0,26,0.00,,CLR,0.00,VWS V14.01,2013-01-22 03:44:00,
2013-01-21 19:45:00,63.5,28.0,30.01,WNW,289,3.0,5.0,26,0.00,,CLR,0.00,VWS V14.01,2013-01-22 03:45:00,
2013-01-21 19:49:00,63.5,28.0,30.01,WNW,288,4.0,5.0,26,0.00,,CLR,0.00,VWS V14.01,2013-01-22 03:49:00,
2013-01-21 19:54:00,63.4,27.0,30.01,NW,312,4.0,5.0,25,0.00,,CLR,0.00,VWS V14.01,2013-01-22 03:54:00,
2013-01-21 19:59:00,63.5,27.1,30.01,WNW,297,3.0,5.0,25,0.00,,CLR,0.00,VWS V14.01,2013-01-22 03:59:00,
2013-01-21 20:00:00,63.5,27.1,30.02,WNW,297,2.0,5.0,25,0.00,,CLR,0.00,VWS V14.01,2013-01-22 04:00:00,
2013-01-21 20:04:00,63.5,26.1,30.02,WNW,297,2.0,3.0,24,0.00,,CLR,0.00,VWS V14.01,2013-01-22 04:04:00,
2013-01-21 20:09:00,63.5,26.1,30.02,WNW,297,2.0,3.0,24,0.00,,CLR,0.00,VWS V14.01,2013-01-22 04:09:00,
2013-01-21 20:14:00,63.4,26.0,30.02,WNW,297,0.0,3.0,24,0.00,,CLR,0.00,VWS V14.01,2013-01-22 04:14:00,
2013-01-21 20:15:00,63.4,27.0,30.03,WNW,297,0.0,3.0,25,0.00,,CLR,0.00,VWS V14.01,2013-01-22 04:15:00,
2013-01-21 20:19:00,63.1,26.7,30.03,WNW,297,0.0,0.0,25,0.00,,CLR,0.00,VWS V14.01,2013-01-22 04:19:00,
2013-01-21 20:24:00,62.7,26.4,30.03,WNW,297,2.0,2.0,25,0.00,,CLR,0.00,VWS V14.01,2013-01-22 04:24:00,
2013-01-21 20:29:00,62.6,26.3,30.03,WNW,297,0.0,2.0,25,0.00,,CLR,0.00,VWS V14.01,2013-01-22 04:29:00,
2013-01-21 20:30:00,62.4,26.1,30.03,WNW,297,0.0,2.0,25,0.00,,CLR,0.00,VWS V14.01,2013-01-22 04:30:00,
2013-01-21 20:34:00,62.4,26.1,30.03,WNW,297,0.0,0.0,25,0.00,,CLR,0.00,VWS V14.01,2013-01-22 04:34:00,
2013-01-21 20:39:00,62.3,25.1,30.03,WNW,297,0.0,0.0,24,0.00,,CLR,0.00,VWS V14.01,2013-01-22 04:39:00,
2013-01-21 20:44:00,62.1,25.9,30.03,WNW,297,3.0,3.0,25,0.00,,CLR,0.00,VWS V14.01,2013-01-22 04:44:00,
2013-01-21 20:45:00,62.1,25.9,30.03,WNW,297,4.0,4.0,25,0.00,,CLR,0.00,VWS V14.01,2013-01-22 04:45:00,
2013-01-21 20:49:00,62.1,26.8,30.03,West,279,4.0,4.0,26,0.00,,CLR,0.00,VWS V14.01,2013-01-22 04:49:00,
2013-01-21 20:54:00,62.0,26.8,30.03,West,279,4.0,5.0,26,0.00,,CLR,0.00,VWS V14.01,2013-01-22 04:54:00,
2013-01-21 20:59:00,61.8,26.6,30.03,West,279,3.0,5.0,26,0.00,,CLR,0.00,VWS V14.01,2013-01-22 04:59:00,
2013-01-21 21:00:00,61.8,26.6,30.03,West,279,2.0,5.0,26,0.00,,CLR,0.00,VWS V14.01,2013-01-22 05:00:00,
2013-01-21 21:01:00,61.8,25.6,30.03,West,279,3.0,5.0,25,0.00,,CLR,0.00,VWS V14.01,2013-01-22 05:01:00,
2013-01-21 21:06:00,61.8,24.6,30.03,West,279,2.0,4.0,24,0.00,,CLR,0.00,VWS V14.01,2013-01-22 05:06:00,
2013-01-21 21:11:00,61.6,25.5,30.03,West,279,1.0,4.0,25,0.00,,CLR,0.00,VWS V14.01,2013-01-22 05:11:00,
2013-01-21 21:15:00,61.8,25.6,30.03,West,279,2.0,4.0,25,0.00,,CLR,0.00,VWS V14.01,2013-01-22 05:15:00,
2013-01-21 21:16:00,61.8,25.6,30.03,West,279,1.0,4.0,25,0.00,,CLR,0.00,VWS V14.01,2013-01-22 05:16:00,
2013-01-21 21:21:00,62.0,25.8,30.03,West,279,1.0,2.0,25,0.00,,CLR,0.00,VWS V14.01,2013-01-22 05:21:00,
2013-01-21 21:26:00,62.1,25.9,30.03,West,279,2.0,2.0,25,0.00,,CLR,0.00,VWS V14.01,2013-01-22 05:26:00,
2013-01-21 21:31:00,62.3,25.1,30.03,West,279,1.0,2.0,24,0.00,,CLR,0.00,VWS V14.01,2013-01-22 05:31:00,
2013-01-21 21:36:00,62.1,24.9,30.03,West,279,0.0,2.0,24,0.00,,CLR,0.00,VWS V14.01,2013-01-22 05:36:00,
2013-01-21 21:41:00,62.3,25.1,30.03,West,279,0.0,2.0,24,0.00,,CLR,0.00,VWS V14.01,2013-01-22 05:41:00,
2013-01-21 21:45:00,62.3,25.1,30.04,West,279,0.0,2.0,24,0.00,,CLR,0.00,VWS V14.01,2013-01-22 05:45:00,
2013-01-21 21:47:00,62.3,25.1,30.04,West,279,0.0,2.0,24,0.00,,CLR,0.00,VWS V14.01,2013-01-22 05:47:00,
2013-01-21 21:52:00,62.1,24.9,30.04,West,264,0.0,2.0,24,0.00,,CLR,0.00,VWS V14.01,2013-01-22 05:52:00,
2013-01-21 21:57:00,61.8,24.6,30.04,West,264,0.0,2.0,24,0.00,,CLR,0.00,VWS V14.01,2013-01-22 05:57:00,
2013-01-21 22:00:00,61.5,25.4,30.04,West,264,0.0,2.0,25,0.00,,CLR,0.00,VWS V14.01,2013-01-22 06:00:00,
2013-01-21 22:02:00,61.5,25.4,30.04,West,264,0.0,2.0,25,0.00,,CLR,0.00,VWS V14.01,2013-01-22 06:02:00,
2013-01-21 22:07:00,61.3,25.2,30.04,West,264,0.0,0.0,25,0.00,,CLR,0.00,VWS V14.01,2013-01-22 06:07:00,
2013-01-21 22:12:00,61.3,25.2,30.04,West,264,0.0,0.0,25,0.00,,CLR,0.00,VWS V14.01,2013-01-22 06:12:00,
2013-01-21 22:15:00,61.5,25.4,30.03,West,264,0.0,0.0,25,0.00,,CLR,0.00,VWS V14.01,2013-01-22 06:15:00,
2013-01-21 22:17:00,61.5,25.4,30.03,West,264,0.0,0.0,25,0.00,,CLR,0.00,VWS V14.01,2013-01-22 06:17:00,
2013-01-21 22:22:00,61.3,25.2,30.03,West,264,0.0,1.0,25,0.00,,CLR,0.00,VWS V14.01,2013-01-22 06:22:00,
2013-01-21 22:27:00,61.2,25.1,30.03,West,264,0.0,2.0,25,0.00,,CLR,0.00,VWS V14.01,2013-01-22 06:27:00,
2013-01-21 22:30:00,61.0,25.0,30.03,West,264,0.0,2.0,25,0.00,,CLR,0.00,VWS V14.01,2013-01-22 06:30:00,
2013-01-21 22:32:00,61.0,25.0,30.03,West,264,0.0,0.0,25,0.00,,CLR,0.00,VWS V14.01,2013-01-22 06:32:00,
2013-01-21 22:37:00,61.2,26.1,30.03,West,264,0.0,0.0,26,0.00,,CLR,0.00,VWS V14.01,2013-01-22 06:37:00,
2013-01-21 22:42:00,61.2,26.1,30.03,West,264,0.0,0.0,26,0.00,,CLR,0.00,VWS V14.01,2013-01-22 06:42:00,
2013-01-21 22:45:00,61.2,26.1,30.03,West,264,0.0,0.0,26,0.00,,CLR,0.00,VWS V14.01,2013-01-22 06:45:00,
2013-01-21 22:47:00,61.2,26.1,30.03,West,264,0.0,0.0,26,0.00,,CLR,0.00,VWS V14.01,2013-01-22 06:47:00,
2013-01-21 22:52:00,61.3,25.2,30.03,West,264,2.0,2.0,25,0.00,,CLR,0.00,VWS V14.01,2013-01-22 06:52:00,
2013-01-21 22:57:00,61.3,25.2,30.03,West,264,1.0,2.0,25,0.00,,CLR,0.00,VWS V14.01,2013-01-22 06:57:00,
2013-01-21 23:00:00,61.6,25.5,30.02,West,264,0.0,2.0,25,0.00,,CLR,0.00,VWS V14.01,2013-01-22 07:00:00,
2013-01-21 23:02:00,61.6,25.5,30.02,West,264,0.0,0.0,25,0.00,,CLR,0.00,VWS V14.01,2013-01-22 07:02:00,
2013-01-21 23:07:00,61.6,25.5,30.02,West,264,0.0,1.0,25,0.00,,CLR,0.00,VWS V14.01,2013-01-22 07:07:00,
2013-01-21 23:12:00,61.5,24.4,30.02,West,264,1.0,3.0,24,0.00,,CLR,0.00,VWS V14.01,2013-01-22 07:12:00,
2013-01-21 23:15:00,61.3,25.2,30.02,SSW,196,1.0,3.0,25,0.00,,CLR,0.00,VWS V14.01,2013-01-22 07:15:00,
2013-01-21 23:17:00,61.3,25.2,30.02,SSW,196,1.0,1.0,25,0.00,,CLR,0.00,VWS V14.01,2013-01-22 07:17:00,
2013-01-21 23:22:00,61.6,25.5,30.02,South,180,1.0,4.0,25,0.00,,CLR,0.00,VWS V14.01,2013-01-22 07:22:00,
2013-01-21 23:27:00,61.6,25.5,30.02,South,180,1.0,4.0,25,0.00,,CLR,0.00,VWS V14.01,2013-01-22 07:27:00,
2013-01-21 23:30:00,61.6,25.5,30.02,South,180,0.0,4.0,25,0.00,,CLR,0.00,VWS V14.01,2013-01-22 07:30:00,
2013-01-21 23:32:00,61.6,25.5,30.02,South,180,1.0,1.0,25,0.00,,CLR,0.00,VWS V14.01,2013-01-22 07:32:00,
2013-01-21 23:37:00,61.2,25.1,30.02,South,183,2.0,3.0,25,0.00,,CLR,0.00,VWS V14.01,2013-01-22 07:37:00,
2013-01-21 23:42:00,60.5,24.5,30.02,South,188,2.0,3.0,25,0.00,,CLR,0.00,VWS V14.01,2013-01-22 07:42:00,
2013-01-21 23:45:00,60.1,25.1,30.02,South,188,0.0,3.0,26,0.00,,CLR,0.00,VWS V14.01,2013-01-22 07:45:00,
2013-01-21 23:47:00,60.1,25.1,30.02,South,188,0.0,0.0,26,0.00,,CLR,0.00,VWS V14.01,2013-01-22 07:47:00,
2013-01-21 23:52:00,59.9,25.9,30.02,South,188,0.0,1.0,27,0.00,,CLR,0.00,VWS V14.01,2013-01-22 07:52:00,
2013-01-21 23:57:00,59.9,25.9,30.02,South,188,1.0,1.0,27,0.00,,CLR,0.00,VWS V14.01,2013-01-22 07:57:00,